Regional Weather Roundup
Issued by NWS

Home | Current Version | Previous Version | Text Only | Print | Product List | Glossary On
Versions: 1 2 3 4 5 6 7 8 9 10 11 12 13 14 15 16 17 18 19 20 21 22 23 24 25 26 27 28 29 30 31 32 33 34 35 36 37 38 39 40 41 42 43 44 45 46 47 48 49 50
000
ASHW40 PHFO 211043
RWRHI

WEATHER ROUNDUP FOR HAWAII
NATIONAL WEATHER SERVICE HONOLULU HI
1200 AM HST TUE FEB 21 2017

THIS IS AN AUTOMATED REPORT THAT HAS NOT BEEN QUALITY CONTROLLED.

NOTE..."FAIR" INDICATES FEW OR NO CLOUDS BELOW 12,000 FEET WITH NO
SIGNIFICANT WEATHER AND/OR OBSTRUCTIONS TO VISIBILITY.

* - THESE SITES REPORT LIMITED FIELDS

HIZ001>004-211100-
KAUAI-NIIHAU-

CITY           SKY/WX    TMP DP  RH WIND       PRES   REMARKS
LIHUE APT      PTCLDY    71  56  58 NE17      30.28S
PORT ALLEN*      N/A     68 N/A N/A NE12        N/A
POIPU*           N/A     70 N/A N/A NE8G16      N/A
PRINCEVILLE*     N/A     68 N/A N/A SE5         N/A
KOKOLE POINT*  NOT AVBL
MOLOAA DAIRY*    N/A     70  55  60 E5G14       N/A
WAIMEA HTS*      N/A     64  52  63 E3G10       N/A
PUU OPAE*      NOT AVBL
PUU LUA*       NOT AVBL
MAKAHA RIDGE*    N/A     63  48  59 E8G15       N/A
$$

HIZ005>011-211100-
OAHU-

CITY           SKY/WX    TMP DP  RH WIND       PRES   REMARKS
HONOLULU       PTCLDY    72  57  59 NE15      30.23S
KALAELOA       CLEAR     71  57  61 NE6       30.25R
KANEOHE MCB    NOT AVBL
WHEELER FIELD  FAIR      60  57  87 CALM      30.23
BELLOWS*         N/A    N/A N/A N/A NE22        N/A
KAHUKU*          N/A    N/A N/A N/A NE10G18     N/A
WHEELER*         N/A    N/A N/A N/A N2          N/A
WAIANAE HARBOR   N/A    N/A N/A N/A NE5G13      N/A
DILLINGHAM*    NOT AVBL
KAHUKU TRN*      N/A     75  64  69 W12G26      N/A
KAWAILOA*        N/A     64  57  77 E12G26      N/A
KII*             N/A     72  59  64 E20G30      N/A
MAKUA RANGE*     N/A     70  57  64 W6G16       N/A
OAHU FOREST NW   N/A     63  55  77 CALM        N/A
SCHOFIELD BRK*   N/A     73  72  94 MISG        N/A
SCHOFIELD S*   NOT AVBL
WAIANAE VLY*     N/A     66  55  68 VRB7G21     N/A
KUAOKALA*        N/A     66  -2   6 NE14G22     N/A
HONOULIUULI*   NOT AVBL
MOKUOLOE IS*   NOT AVBL
PALEHUA*         N/A     59  55  88 NE13G26     N/A
WAIAWA PHB*    NOT AVBL
$$

HIZ012>013-211100-
MOLOKAI-

CITY           SKY/WX    TMP DP  RH WIND       PRES   REMARKS
MOLOKAI AIRPT  CLEAR     71  58  63 NE18G25   30.22F
KALAUPAPA      NOT AVBL
MAKAPULAPAI*     N/A     72  59  64 E18G26      N/A
MOLOKAI 1*       N/A     59  52  77 NE6G24      N/A
PUU ALII*        N/A     52  51  97 N2G15       N/A
$$

HIZ016-211100-
KAHOOLAWE-

CITY           SKY/WX    TMP DP  RH WIND       PRES   REMARKS
KAHOOLAWE*     NOT AVBL
HAKIOAWA*        N/A     67  60  79 MISG      30.61F
HONOKANAIA*      N/A     69  58  68 N7G21     30.15F
KANELOA*         N/A     70  59  68 N10G28    30.27F
KEALIALALO*    NOT AVBL
LUA MAKIKA*    NOT AVBL
$$

HIZ014>015-211100-
LANAI-

CITY           SKY/WX    TMP DP  RH WIND       PRES   REMARKS
LANAI CITY       N/A     65  58  78 NE17      30.24F
LANAI 1*         N/A     64  55  72 NE17G26     N/A
$$

HIZ017>028-211100-
MAUI-

CITY           SKY/WX    TMP DP  RH WIND       PRES   REMARKS
KAHULUI        PTCLDY    70  59  68 NE9       30.23F
KAPALUA-W MAUI NOT AVBL
HANA AIRPORT   CLOUDY    72  57  60 E3        30.27F
HANA*            N/A     72 N/A N/A E7G15       N/A
HALEAKALA SUMM   N/A     36  19  51 S9          N/A  WCI  29
MAALAEA BAY*     N/A     70 N/A N/A N23G32      N/A
HALEAKALA*     NOT AVBL
KAUPO GAP*       N/A     70  59  68 NW17G30     N/A
KULA 1*          N/A    N/A N/A N/A SE3         N/A
$$

HIZ023>026-211100-
BIG ISLAND OF HAWAII COAST AND LOWER SLOPES-

CITY           SKY/WX    TMP DP  RH WIND       PRES   REMARKS
KAILUA KONA    MOCLDY    71  56  58 N14       30.15F
HILO           PTCLDY    67  60  78 VRB3      30.25S
HONOKAA*         N/A     63 N/A N/A VRB1        N/A
KAWAIHAE MWT*    N/A     72 N/A N/A NE7         N/A
KAWAIHAE*        N/A     72 N/A N/A E2        30.16F
SOUTH POINT*     N/A     66 N/A N/A NW15G21     N/A
UPOLU AIRPORT* NOT AVBL
KAMUELA*       SUNNY     57  54  88 NE24      30.26F
HAKALAU*         N/A     39  39 100 SW2         N/A
KALOKO-HONOKO*   N/A     72  57  60 NW3       30.14F
PALI 2*          N/A     57  52  82 S18G32      N/A
KEALAKOMO*       N/A     72  55  56 N18G30      N/A
KAUPULEHU*       N/A     64  54  68 SE8         N/A
KAPAPALA*        N/A     53  51  94 N5          N/A
LOWER KAHUKU*    N/A     52  52 100 VRB2        N/A
PUHE CS*         N/A     72  54  53 E5G12       N/A
PUHO CS*         N/A     72  57  60 E3          N/A
PTA KEAMUKU*     N/A     54  50  87 CALM        N/A
WAIKOLOA*        N/A     66  54  63 E18G32      N/A
$$

HIZ027>028-211100-
BIG ISLAND OF HAWAII INTERIOR AND SUMMMITS-

CITY           SKY/WX    TMP DP  RH WIND       PRES   REMARKS
BRADSHAW FIELD CLEAR     44  39  82 SE7       30.44F
MK VISITOR CEN   N/A     41  18  38 N9          N/A
MAUNA KEA*       N/A     25 -17  15 CALM        N/A
MAUNA LOA*       N/A    N/A N/A N/A MISG        N/A
MAUNA LOA 1*   NOT AVBL
PTA KIPUKA*      N/A     70  54  56 SE3         N/A
PTA RANGE 17*    N/A     70  59  68 E10G20      N/A
PTA WEST*        N/A     48  36  61 SE9G15      N/A
NENE CABIN*      N/A     43  14  31 N3          N/A
AHUMOA*          N/A    N/A N/A N/A E6G12       N/A
PTA PORTABLE*  NOT AVBL
PUU MALI*        N/A    N/A N/A N/A S6          N/A
$$

HIC003-211100-
NORTHWEST ISLANDS-

CITY           SKY/WX    TMP DP  RH WIND       PRES   REMARKS
MIDWAY ISLAND  CLOUDY    64  57  77 E14       30.26S
MIDWAY NOS*      N/A     64 N/A N/A MISG      30.24S
FRENCH FRIGATE NOT AVBL
$$

PHZ110>124-180-211100-
BUOY REPORTS

STATION/POSITION TIME  TEMP    WIND        PRES    WAVE   SWELL
                       AIR SEA DIR/SP/G            HT/PER HT/DIR
                 (UTC) (F)     (DEG/KT/KT) (MB)    (FT/S) (FT/D)
BUOY 51001       1020   70 72  110/ 14/ 16 1025.7
BUOY 51101       0950   71 72  100/ 16/ 19 1025.8F   8/10   7/340
BUOY 51100       NOT AVBL
BUOY 51002       1020   76 78   60/ 23/ 29 1020.5
BUOY 51003       0950   75 77   60/ 16/ 19 1022.2R  11/ 8   8/ 60
BUOY 51004       0950      77   50/ 21/ 25 1020.4S  12/ 8   7/350
BARBERS PT BUOY  NOT AVBL
WAIMEA BAY BUOY  1002      75                N/A     8/13   5/330
KAILUA BAY BUOY  1004      75                N/A     8/13   5/350
LANAI BUOY       1015      77                N/A     3/11   2/290
BARBERS PT 2     NOT AVBL
PAUWELA MAUI     1009      75                N/A     9/13   5/330
HILO             1012      77                N/A     9/13   5/340
KANEOHE BAY BUOY 1006      75                N/A     8/12   5/350
HANALEI KAUAI    1022      75                N/A     8/12   3/330
KAHULUI HARBOR   1006   71 75   50/ 10/ 14 1023.8
HONOLULU HARBOR  1006   72 76   70/  3/  5 1024.4
KILO NALU        NOT AVBL
HILO HARBOR      1006   72 76   60/  6/ 13 1024.0
MOKUOLOE         0936   72 74   70/ 13/ 18 1024.3F
NAWILIWILI       1006   71 76   60/ 14/ 18 1024.7
WHOTS BUOY       NOT AVBL
BUOY 51028       NOT AVBL
$$

......................KEY........................................
  SKY/WX - SKY CONDITIONS/PRESENT WEATHER
  TMP    - TEMPERATURE IN FAHRENHEIT
  DWPT   - DEWPOINT IN FAHRENHEIT
  RH     - RELATIVE HUMIDITY IN PERCENT
  WIND   - DIRECTION AND SPEED /MPH FOR ISLANDS...KTS FOR BUOYS/
  PRES   - MEAN SEA LEVEL PRESSURE IN INCHES OF HG
  VSB    - VISIBILITY IN MILES
  HX     - HEAT INDEX
  WCI    - WIND CHILL INDEX
  VRB    - VARIABLE WIND DIRECTION
  N/A    - NOT AVAILABLE



USA.gov is the U.S. government's official web portal to all federal, state and local government web resources and services.